Russell, KS

9:05 PM CST on January 20, 2017 (GMT -0600)
Russell Municipal

Weather History for KRSL - August, 2014

Change the Weather History Date:

Friday, August 29, 2014

  Actual Average Record
Temperature  
Mean Temperature 75 °F -  
Max Temperature 86 °F 88 °F 104 °F (1951)
Min Temperature 64 °F 63 °F 52 °F (1988)
Cooling Degree Days 10    
Growing Degree Days 25 (Base 50)    
Moisture  
Dew Point 60 °F    
Average Humidity 65    
Maximum Humidity 90    
Minimum Humidity 40    
Precipitation  
Precipitation 0.01 in - - ()
Sea Level Pressure  
Sea Level Pressure 29.82 in    
Wind  
Wind Speed 10 mph (WNW)    
Max Wind Speed 15 mph    
Max Gust Speed 24 mph    
Visibility 10 miles    
Events Rain    
Averages and records for this station are not official NWS values.
T = Trace of Precipitation, MM = Missing Value Source: NWS Daily Summary

Daily Weather History Graph

Daily Weather History Graph

Search for Another Location

Airport or City:

Trip Planner

Search our weather history database for the weather conditions in past years. The results will help you decide how hot, cold, wet, or windy it might be!

Date:

Astronomy

Aug. 29, 2014 Rise Set
Actual Time 7:01 AM CDT 8:10 PM CDT
Civil Twilight 6:34 AM CDT 8:37 PM CDT
Nautical Twilight 6:01 AM CDT 9:10 PM CDT
Astronomical Twilight 5:27 AM CDT 9:44 PM CDT
Moon 10:49 AM CDT (8/29) 10:11 PM CDT (8/29)
Length of Visible Light 14h 03m
Length of Day
13h 08m
Waxing Crescent, 15% of the Moon is Illuminated
Aug 29
Waxing Crescent
Sep 2
First Quarter
Sep 8
Full
Sep 15
Last Quarter
Sep 24
New

Hourly Weather History & Observations

Time (CDT) Temp. Heat Index Dew Point Humidity Pressure Visibility Wind Dir Wind Speed Gust Speed Precip Events Conditions
12:53 AM 70.0 °F - 63.0 °F 78% 29.82 in 10.0 mi SW 11.5 mph - N/A   Partly Cloudy
1:53 AM 68.0 °F - 57.0 °F 68% 29.81 in 10.0 mi SW 10.4 mph - N/A   Partly Cloudy
2:53 AM 66.9 °F - 60.1 °F 79% 29.78 in 10.0 mi SSE 15.0 mph - 0.00 in Rain Light Rain
3:26 AM 66.0 °F - 60.1 °F 81% 29.86 in 10.0 mi WSW 13.8 mph 24.2 mph 0.01 in Rain Light Rain
3:53 AM 66.0 °F - 61.0 °F 84% 29.81 in 10.0 mi West 6.9 mph - 0.01 in   Clear
4:53 AM 64.9 °F - 61.0 °F 87% 29.81 in 10.0 mi West 9.2 mph - N/A   Clear
5:53 AM 64.9 °F - 62.1 °F 90% 29.80 in 10.0 mi SW 6.9 mph - N/A   Clear
6:53 AM 64.9 °F - 61.0 °F 87% 29.82 in 10.0 mi WSW 11.5 mph - N/A   Clear
7:53 AM 64.9 °F - 61.0 °F 87% 29.83 in 10.0 mi West 8.1 mph - N/A   Clear
8:53 AM 69.1 °F - 62.1 °F 78% 29.84 in 10.0 mi West 10.4 mph - N/A   Mostly Cloudy
9:53 AM 71.1 °F - 62.1 °F 73% 29.84 in 10.0 mi West 6.9 mph - N/A   Clear
10:53 AM 73.9 °F - 62.1 °F 66% 29.83 in 10.0 mi West 10.4 mph - N/A   Clear
11:53 AM 75.0 °F - 62.1 °F 64% 29.83 in 10.0 mi West 8.1 mph - N/A   Clear
12:53 PM 79.0 °F - 60.1 °F 52% 29.82 in 10.0 mi NW 6.9 mph - N/A   Clear
1:53 PM 82.0 °F 83.0 °F 62.1 °F 51% 29.80 in 10.0 mi NW 9.2 mph - N/A   Clear
2:53 PM 82.9 °F 82.8 °F 59.0 °F 44% 29.79 in 10.0 mi NW 8.1 mph - N/A   Clear
3:53 PM 84.9 °F 84.8 °F 60.1 °F 43% 29.78 in 10.0 mi WSW 6.9 mph - N/A   Clear
4:53 PM 86.0 °F 86.1 °F 61.0 °F 43% 29.77 in 10.0 mi West 8.1 mph - N/A   Partly Cloudy
5:53 PM 84.9 °F 84.4 °F 59.0 °F 41% 29.79 in 10.0 mi NNW 11.5 mph - N/A   Clear
6:53 PM 84.9 °F 84.2 °F 57.9 °F 40% 29.79 in 10.0 mi North 6.9 mph - N/A   Clear
7:53 PM 80.1 °F 80.9 °F 60.1 °F 50% 29.80 in 10.0 mi NNW 3.5 mph - N/A   Clear
8:53 PM 78.1 °F - 57.9 °F 50% 29.82 in 10.0 mi West 3.5 mph - N/A   Clear
9:53 PM 73.0 °F - 60.1 °F 64% 29.86 in 10.0 mi NNW 6.9 mph - N/A   Clear
10:53 PM 73.0 °F - 57.0 °F 57% 29.87 in 10.0 mi North 5.8 mph - N/A   Clear
11:53 PM 71.1 °F - 57.0 °F 61% 29.89 in 10.0 mi North 8.1 mph - N/A   Clear